Welcome to the New NWS' Forecast!
Most changes are behind the scenes, but click here for differences you might notice.
Latest weather observations around

Harrison, Boone County Airport (KHRO)

Using English Units (Switch to International System of Units)
Date/ Time (CDT) Wind (mph) Vis. (mi) Weather Sky Cond. Temp (°F) Rel. Humidity Wind Chill (°F) Heat Index (°F) Pressure Precip. (in)
Air Dwpt 6 hour Altimeter (inHg) Sea level (inHg) 1 hr 3 hr 6 hr
Max Min
Jul 28 06:53 Calm 10 Mostly Cloudy BKN033 BKN065 74 74     100%   76 29.94 29.89 0   0
Jul 28 05:53 S 3 4 Rain and Fog/Mist FEW034 BKN090 OVC110 73 73     100%   75 29.93 29.88 0    
Jul 28 04:53 Calm 5 Rain and Fog/Mist FEW080 BKN110 74 73     97%   76 29.92 29.87 0    
Jul 28 03:53 W 5 10 Cloudy FEW042 BKN050 OVC075 76 73     91%   77 29.92 29.87   0  
Jul 28 02:53 W 3 10 Mostly Cloudy FEW019 BKN095 BKN110 76 76     100%   78 29.92 29.87      
Jul 28 01:53 SSW 5 5 Fog/Mist BKN100 76 76     100%   78 29.91 29.86 0    
Jul 28 00:53 Calm 8 Light Rain SCT080 BKN110 77 77     100%   79 29.93 29.88 0   0
Jul 27 23:53 S 5 10 Cloudy OVC085 78 76     93%   80 29.95 29.9      
Jul 27 22:53 S 5 9 Cloudy OVC085 77 77     100%   79 29.94 29.89      
Jul 27 21:53 SE 5 10 Cloudy FEW007 SCT023 OVC100 79 77     94%   83 29.95 29.9      
Jul 27 21:39 ESE 5 10 Cloudy FEW007 SCT026 OVC100 79 77     94%   83 29.95        
Jul 27 20:53 E 3 10 Partly Cloudy FEW033 SCT095 79 77     94%   83 29.94 29.89      
Jul 27 19:53 NE 5 10 Clear CLR 81 77     88%   88 29.92 29.87      
Jul 27 18:53 NE 5 10 Mostly Clear FEW100 83 77     82%   92 29.93 29.88     0
Jul 27 17:53 Calm 10 Cloudy OVC100 84 76     77%   93 29.94 29.89      
Jul 27 16:53 SW 3 10 Mostly Cloudy BKN095 85 75     72%   93 29.95 29.9      
Jul 27 15:53 S 3 10 Mostly Cloudy BKN100 85 74     70%   92 29.97 29.92   0  
Jul 27 14:53 Calm 10 Mostly Cloudy BKN100 83 75     77%   90 29.99 29.93 0    
Jul 27 13:53 WSW 6 10 Light Rain FEW095 80 74     82%   85 30 29.94 0    
Jul 27 12:53 5 10 Partly Cloudy FEW011 SCT110 80 75     85%   85 30.02 29.97 0   0
Jul 27 12:04 Calm 9 Mostly Cloudy FEW006 SCT028 BKN036 77 74     90%   79 30.05   0    
Jul 27 11:53 N 6 8 Light Rain FEW006 BKN029 OVC110 76 75     97%   78 30.06 30.01 0    
Jul 27 11:48 N 6 9 Light Rain FEW006 BKN029 OVC110 75 75     100%   77 30.06   0    
Jul 27 10:53 N 3 10 Light Rain FEW065 FEW100 BKN120 77 75     94%   79 30.05 30.01 0    
Jul 27 09:53 N 3 8 Light Rain OVC100 77 74     90%   79 30.05 30 0 0  
Jul 27 05:53 SSE 3 10 Clear CLR 77 70     79%   78 30.01 29.95      
Jul 27 04:53 3 10 Clear CLR 77 70     79%   78 30.01 29.96      
Jul 27 03:53 SSE 3 10 Clear CLR 78 69     74%   79 30.01 29.95      
Jul 27 01:53 Calm 10 Clear CLR 78 70     76%   79 30.03 29.97      
Jul 27 00:53 SSE 3 10 Clear CLR 78 71     79%   79 30.04 29.98      
Jul 26 23:53 S 6 10 Clear CLR 78 72     82%   79 30.05 29.99      
Jul 26 22:53 SE 6 10 Clear CLR 78 73     85%   80 30.05 29.99      
Jul 26 21:53 SSE 3 10 Clear CLR 79 73     82%   82 30.03 29.98      
Jul 26 20:53 S 3 10 Clear CLR 82 72     72%   87 30.04 29.98      
Jul 26 19:53 S 3 10 Clear CLR 84 72     67%   90 30.04 29.98      
Jul 26 18:53 Calm 10 Clear CLR 86 72     63%   92 30.04 29.99      
Jul 26 17:53 SSW 7 10 Clear CLR 88 70     55%   93 30.05 30      
Jul 26 16:53 S 8 10 Partly Cloudy SCT055 SCT070 88 71     57%   94 30.05 29.99      
Jul 26 15:53 S 7 10 Partly Cloudy FEW050 SCT070 90 71     54%   96 30.06 30      
Jul 26 14:53 SW 8 10 Partly Cloudy SCT050 91 71     52%   98 30.07 30.01      
Jul 26 13:53 SSW 5 10 Mostly Clear FEW048 FEW065 90 72     56%   97 30.09 30.04      
Jul 26 12:53 6 10 Clear CLR 91 70     50%   97 30.11 30.05      
Jul 26 11:53 7 10 Clear CLR 89 71     55%   95 30.12 30.07      
Jul 26 10:53 SSW 7 10 Clear CLR 87 71     59%   93 30.13 30.08      
Jul 26 09:53 7 10 Clear CLR 85 72     65%   91 30.12 30.07      
Jul 26 08:53 6 10 Clear CLR 83 72     70%   88 30.13 30.07      
Jul 26 07:53 S 5 10 Clear CLR 79 72     79%   82 30.12 30.07      
Jul 26 06:53 SSW 5 10 Clear CLR 76 71     85%   77 30.12 30.06      
Jul 26 05:53 Calm 10 Clear CLR 73 70     90%   74 30.11 30.06      
Jul 26 04:53 Calm 10 Clear CLR 74 71     91%   75 30.1 30.04      
Jul 26 03:53 Calm 10 Clear CLR 74 71     91%   75 30.11 30.05      
Jul 26 02:53 SSE 3 10 Clear CLR 75 71     88%   76 30.12 30.06      
Jul 26 01:53 WSW 6 10 Clear CLR 78 71     79%   79 30.11 30.05      
Jul 26 00:53 Calm 10 Clear CLR 76 71     85%   77 30.11 30.06      
Jul 25 23:53 Calm 9 Clear CLR 75 70     84%   76 30.1 30.04      
Jul 25 22:53 Calm 10 Clear CLR 77 70     79%   78 30.11 30.05      
Jul 25 21:53 Calm 10 Clear CLR 78 70     76%   79 30.09 30.04      
Jul 25 20:53 SSW 5 10 Clear CLR 82 69     65%   85 30.07 30.02      
Jul 25 19:53 SSW 5 10 Clear CLR 85 69     59%   89 30.08 30.03      
Jul 25 18:53 S 6 10 Clear CLR 87 71     59%   93 30.08 30.02      
Jul 25 17:53 S 9 10 Clear CLR 91 71     52%   98 30.07 30.02      
Jul 25 16:53 SW 6 10 Clear CLR 93 70     47%   99 30.08 30.02      
Jul 25 15:53 SSW 3 10 Clear CLR 93 69     46%   98 30.09 30.03      
Jul 25 14:53 5 10 Clear CLR 93 69     46%   98 30.11 30.05      
Jul 25 13:53 3 10 Mostly Clear FEW050 91 70     50%   97 30.12 30.06      
Jul 25 12:53 3 10 Partly Cloudy FEW046 SCT060 91 70     50%   97 30.12 30.06      
Jul 25 11:53 SW 6 10 Clear CLR 90 71     54%   96 30.14 30.08      
Jul 25 09:53 WNW 7 10 Clear CLR 85 73     68%   92 30.13 30.08      
Jul 25 08:53 WNW 3 10 Clear CLR 82 73     74%   87 30.13 30.08      
Jul 25 07:53 NW 3 10 Clear CLR 79 72     79%   82 30.12 30.07      
Jul 25 06:53 Calm 10 Clear CLR 74 71     91%   75 30.11 30.06      
Jul 25 05:53 W 5 10 Clear CLR 76 71     85%   77 30.08 30.02      
Jul 25 04:53 WNW 6 10 Clear CLR 77 71     82%   78 30.07 30.01      
Jul 25 03:53 WNW 6 10 Partly Cloudy SCT120 78 70     76%   79 30.06 30      
Jul 25 02:53 WNW 7 10 Partly Cloudy SCT120 78 71     79%   79 30.05 30      
Jul 25 01:53 W 3 10 Mostly Clear FEW120 77 71     82%   78 30.05 30      
Jul 25 00:53 Calm 10 Clear CLR 79 71     77%   82 30.05 29.99      
Jul 24 23:53 SSW 3 10 Clear CLR 80 70     71%   83 30.04 29.98      
Jul 24 22:53 Calm 10 Partly Cloudy SCT060 78 72     82%   79 30.04 29.98      
Jul 24 21:53 W 5 10 Mostly Clear FEW060 FEW075 83 71     67%   88 30.02 29.96      
Jul 24 20:53 W 3 10 Mostly Cloudy BKN065 82 73     74%   87 30 29.94      
Jul 24 19:53 Calm 10 Mostly Clear FEW120 87 71     59%   93 29.98 29.92      
Jul 24 18:53 Calm 10 Clear CLR 90 70     52%   95 29.96 29.91      
Jul 24 17:53 SSW 5 10 Partly Cloudy SCT110 91 70     50%   97 29.97 29.92      
Jul 24 16:53 3 10 Clear CLR 91 69     49%   96 29.98 29.93      
Jul 24 15:53 Calm 10 Clear CLR 92 68     46%   96 29.99 29.93      
Jul 24 14:53 5 10 Clear CLR 91 67     45%   94 30 29.95      
Jul 24 13:53 Calm 10 Clear CLR 91 69     49%   96 30.01 29.96      
Jul 24 12:53 NW 6 10 Clear CLR 89 70     53%   94 30.02 29.97      
Jul 24 11:53 Calm 10 Mostly Clear FEW110 87 69     55%   91 30.02 29.97      
Jul 24 10:53 5 10 Clear CLR 86 72     63%   92 30.03 29.97      
Jul 24 09:53 3 10 Mostly Clear FEW120 82 70     67%   86 30.02 29.97      
Jul 24 08:53 WNW 5 10 Cloudy OVC110 78 69     74%   79 30.02 29.98      
Jul 24 07:53 W 7 10 Clear CLR 76 69     79%   77 30 29.95      
Jul 24 06:53 WNW 5 10 Clear CLR 72 68     87%   73 29.98 29.93      
Jul 24 05:53 WNW 7 10 Clear CLR 71 68     90%   72 29.98 29.93      
Jul 24 04:53 WNW 7 10 Clear CLR 71 68     90%   72 29.96 29.91      
Jul 24 03:53 NNW 7 10 Clear CLR 71 69     93%   72 29.95 29.9      
Jul 24 02:53 WNW 5 10 Mostly Clear FEW100 73 68     84%   74 29.95 29.89      
Jul 24 01:53 W 5 10 Mostly Clear FEW100 73 68     84%   74 29.96 29.91      
Jul 24 00:53 WSW 5 10 Mostly Cloudy BKN100 74 69     85%   75 29.97 29.91      
Jul 23 23:53 Calm 10 Cloudy OVC110 77 70     79%   78 29.98 29.92      
Jul 23 22:53 NNW 5 10 Mostly Cloudy BKN100 75 71     88%   76 29.94 29.89      
Jul 23 21:53 WSW 3 10 Cloudy OVC110 77 71     82%   78 29.95 29.9      
Jul 23 20:53 W 3 10 Cloudy OVC100 78 70     76%   79 29.95 29.89      
Jul 23 19:53 W 5 10 Clear CLR 79 70     74%   82 29.92 29.87      
Jul 23 18:53 WNW 6 10 Clear CLR 81 69     67%   84 29.89 29.84      
Jul 23 17:53 NW 5 10 Clear CLR 82 69     65%   85 29.9 29.85      
Jul 23 16:53 NW 6 10 Clear CLR 84 67     57%   87 29.93 29.88      
Jul 23 15:53 6 10 Mostly Clear FEW100 91 65     42%   93 29.92 29.87      
Jul 23 14:53 NNE 9 10 Partly Cloudy SCT055 93 67     43%   97 29.91 29.85      
Jul 23 13:53 SE 5 10 Clear CLR 90 68     49%   94 29.95 29.89      
Jul 23 12:53 ENE 7 10 Clear CLR 90 69     50%   95 29.96 29.9      
Jul 23 11:53 E 6 10 Clear CLR 88 70     55%   93 29.97 29.91      
Jul 23 10:53 5 10 Clear CLR 86 71     61%   92 29.98 29.92      
Jul 23 09:53   10 Clear CLR 83 71     67%   88 29.98 29.92      
Jul 23 08:53 ESE 8 10 Clear CLR 81 71     72%   85 29.98 29.93      
Jul 23 07:53 Calm 10 Mostly Clear FEW041 FEW075 76 72     88%   77 29.98 29.93      
Jul 23 07:24 WNW 5 10 Cloudy SCT027 BKN036 OVC046 76 72     88%   77 29.99        
Jul 23 07:03 NNW 5 10 Cloudy BKN027 OVC035 74 72     94%   75 29.97        
Jul 23 06:53 Calm 10 Mostly Cloudy SCT025 BKN035 75 72     90%   76 29.97 29.92      
Jul 23 05:53 SW 3 10 Mostly Clear FEW050 74 71     91%   75 29.94 29.88      
Jul 23 04:53 W 5 10 Mostly Clear FEW050 75 71     88%   76 29.94 29.88      
Jul 23 03:53 NW 7 10 Clear CLR 76 71     85%   77 29.92 29.86      
Jul 23 02:53 WNW 3 10 Clear CLR 78 70     76%   79 29.91 29.85      
Jul 23 01:53 S 6 10 Clear CLR 79 71     77%   82 29.91 29.85      
Jul 23 00:53 S 5 10 Clear CLR 75 71     88%   76 29.93 29.88      
Jul 22 23:53 SSE 5 10 Clear CLR 75 71     88%   76 29.94 29.88      
Jul 22 22:53 SSE 6 10 Clear CLR 78 71     79%   79 29.93 29.88      
Jul 22 21:53 SW 3 10 Clear CLR 82 70     67%   86 29.94 29.88      
Jul 22 20:53 S 5 10 Clear CLR 82 70     67%   86 29.92 29.86      
Jul 22 19:53 S 6 10 Clear CLR 85 71     63%   90 29.9 29.85      
Jul 22 18:53 S 6 10 Clear CLR 89 71     55%   95 29.91 29.85      
Jul 22 17:53 SSW 7 10 Clear CLR 91 70     50%   97 29.91 29.85      
Jul 22 16:53 SSW 5 10 Clear CLR 93 68     44%   97 29.92 29.86      
Jul 22 15:53 S 8 10 Clear CLR 94 69     45%   99 29.93 29.87      
Jul 22 14:53 SSE 11 10 Clear CLR 94 72     49%   102 29.94 29.88      
Jul 22 13:53   10 Mostly Clear FEW055 94 73     51%   103 29.96 29.9      
Jul 22 12:53 3 10 Clear CLR 93 70     47%   99 29.98 29.92      
Jul 22 11:53 SW 7 10 Clear CLR 92 70     49%   98 29.99 29.93      
Jul 22 10:53 5 10 Clear CLR 89 69     52%   94 29.99 29.94      
Jul 22 09:53 SW 7 10 Clear CLR 88 71     57%   94 30 29.94      
Jul 22 08:53 5 10 Clear CLR 85 72     65%   91 30.01 29.95      
Jul 22 07:53 W 5 10 Clear CLR 82 72     72%   87 29.99 29.93      
Jul 22 06:53 SSW 5 10 Clear CLR 79 71     77%   82 29.98 29.93      
Jul 22 05:53 SW 5 10 Clear CLR 78 70     76%   79 29.97 29.91      
Jul 22 04:53 Calm 10 Clear CLR 76 68     76%   77 29.96 29.91      
Jul 22 03:53 Calm 10 Clear CLR 77 69     77%   78 29.96 29.9      
Jul 22 02:53 S 3 10 Clear CLR 77 72     84%   78 29.96 29.9      
Jul 22 01:53 ESE 3 8 Clear CLR 77 73     88%   79 29.98 29.92      
Jul 22 00:53 S 5 9 Clear CLR 78 73     85%   80 30 29.94      
Jul 21 23:53 S 3 9 Clear CLR 78 73     85%   80 30.01 29.95      
Jul 21 22:53 S 5 9 Clear CLR 79 73     82%   82 30.01 29.95      
Jul 21 21:53 SSW 3 10 Clear CLR 82 72     72%   87 30 29.94      
Jul 21 20:53 SSW 3 10 Clear CLR 84 72     67%   90 29.99 29.93      
Jul 21 19:53 SSW 6 10 Clear CLR 86 73     65%   93 29.98 29.92      
Jul 21 18:53 S 6 10 Clear CLR 89 72     57%   96 29.98 29.92      
Jul 21 17:53 SSW 8 10 Clear CLR 91 72     54%   99 29.98 29.92      
Jul 21 16:53 S 6 10 Clear CLR 92 70     49%   98 29.99 29.93      
Jul 21 15:53 7 10 Clear CLR 93 71     49%   100 30.01 29.95      
Jul 21 14:53 SSW 9 10 Mostly Clear FEW047 93 73     52%   102 30.03 29.97      
Jul 21 12:53 S 7 10 Partly Cloudy SCT045 90 73     58%   98 30.06 30      
Jul 21 11:53 W 5 10 Clear CLR 91 71     52%   98 30.07 30.01      
Jul 21 10:53 WSW 7 10 Clear CLR 89 71     55%   95 30.07 30.01      
Jul 21 09:53 W 7 10 Clear CLR 87 73     63%   95 30.08 30.02      
Jul 21 08:53 Calm 10 Clear CLR 85 73     68%   92 30.07 30.02      
Jul 21 07:53 Calm 10 Clear CLR 81 73     77%   86 30.08 30.02      
Jul 21 06:53 Calm 8 Clear CLR 75 72     90%   76 30.07 30.02      
Jul 21 05:53 Calm 10 Clear CLR 74 71     91%   75 30.06 30      
Jul 21 04:53 Calm 8 Clear CLR 73 71     94%   74 30.04 29.99      
Jul 21 03:53 Calm 9 Clear CLR 74 72     94%   75 30.04 29.99      
Jul 21 02:53 S 3 10 Clear CLR 76 72     88%   77 30.04 29.98      
Jul 21 01:53 SSE 3 10 Clear CLR 76 71     85%   77 30.06 30      
Jul 21 00:53 Calm 10 Clear CLR 78 70     76%   79 30.07 30.01      
Jul 20 23:53 Calm 10 Clear CLR 79 71     77%   82 30.08 30.02      
Jul 20 22:53 Calm 10 Clear CLR 81 70     69%   84 30.08 30.01      
Jul 20 21:53 S 3 10 Clear CLR 82 71     69%   86 30.07 30.01      
Jul 20 20:53 SW 3 10 Clear CLR 82 73     74%   87 30.06 30      
Jul 20 19:53 SSW 5 10 Clear CLR 86 74     67%   94 30.05 29.99      
Jul 20 18:53 S 3 10 Clear CLR 89 73     59%   97 30.06 30      
Jul 20 17:53 SSW 6 10 Partly Cloudy SCT060 91 73     56%   100 30.06 30.01      
Jul 20 16:53 S 5 10 Mostly Cloudy BKN060 89 71     55%   95 30.07 30.02      
Jul 20 15:53 SW 6 10 Mostly Clear FEW060 93 69     46%   98 30.09 30.03      
Jul 20 14:53 SW 5 10 Clear CLR 93 69     46%   98 30.11 30.05      
Jul 20 13:53 5 10 Mostly Clear FEW050 93 70     47%   99 30.12 30.06      
Jul 20 12:53 5 10 Partly Cloudy SCT046 92 71     51%   99 30.14 30.08      
Jul 20 11:53 W 7 10 Mostly Clear FEW039 91 72     54%   99 30.15 30.1      
Jul 20 10:53 W 6 10 Clear CLR 88 73     61%   96 30.17 30.11      
Jul 20 09:53 W 8 10 Clear CLR 87 74     65%   95 30.16 30.1      
Jul 20 08:53 SW 7 10 Clear CLR 85 74     70%   92 30.16 30.11      
Jul 20 07:53 Calm 10 Clear CLR 81 75     82%   87 30.15 30.1      
Jul 20 06:53 Calm 9 Clear CLR 77 73     88%   79 30.15 30.09      
Jul 20 04:53 Calm 10 Clear CLR 72 70     93%   73 30.13 30.08      
Jul 20 03:53 ESE 3 10 Clear CLR 73 71     94%   74 30.12 30.06      
Jul 20 02:53 Calm 10 Clear CLR 74 71     91%   75 30.12 30.07      
Jul 20 01:53 SE 3 10 Clear CLR 73 71     94%   74 30.13 30.08      
Jul 20 00:53 S 3 10 Clear CLR 75 70     84%   76 30.14 30.09      
Jul 19 23:53 S 3 10 Clear CLR 78 69     74%   79 30.14 30.09      
Jul 19 22:53 S 3 10 Clear CLR 79 70     74%   82 30.13 30.08      
Jul 19 20:53 S 3 10 Partly Cloudy SCT055 82 72     72%   87 30.11 30.06      
Jul 19 19:53 S 5 10 Clear CLR 85 71     63%   90 30.11 30.06      
Jul 19 18:53 S 5 10 Clear CLR 88 70     55%   93 30.11 30.06      
Jul 19 17:53 SSW 5 10 Clear CLR 90 68     49%   94 30.11 30.06      
Jul 19 16:53 SSW 6 10 Clear CLR 91 69     49%   96 30.12 30.07      
Jul 19 15:53 Calm 10 Clear CLR 91 66     44%   94 30.14 30.09      
Jul 19 14:53 SW 5 10 Clear CLR 91 65     42%   93 30.16 30.11      
Jul 19 13:53 SSE 3 10 Clear CLR 90 67     47%   93 30.18 30.13      
Jul 19 12:53 3 9 Mostly Clear FEW050 90 69     50%   95 30.2 30.14      
Jul 19 11:53 5 10 Partly Cloudy SCT046 90 68     49%   94 30.2 30.15      
Jul 19 10:53 5 10 Clear CLR 87 72     61%   94 30.2 30.15      
Jul 19 09:53   10 Clear CLR 86 73     65%   93 30.2 30.14      
Jul 19 05:53 Calm 7 Clear CLR 68 68     100%     30.16 30.11      
Jul 19 04:53 SE 3 8 Clear CLR 68 68     100%     30.15 30.1      
Jul 19 03:53 Calm 9 Clear CLR 69 68     96%     30.15 30.1      
Jul 19 01:53 Calm 10 Clear CLR 68 67     96%     30.15 30.1      
Jul 19 00:53 SSE 3 10 Clear CLR 71 68     90%   72 30.15 30.09      
Jul 18 23:53 Calm 10 Clear CLR 72 69     91%   73 30.13 30.08      
Jul 18 22:53 Calm 10 Clear CLR 74 70     87%   75 30.12 30.07      
Jul 18 21:53 SSW 3 10 Clear CLR 75 69     82%   76 30.12 30.07      
Jul 18 20:53 Calm 10 Clear CLR 78 68     71%   79 30.11 30.06      
Jul 18 19:53 Calm 10 Clear CLR 82 69     65%   85 30.1 30.05      
Jul 18 18:53 ESE 5 10 Clear CLR 87 67     51%   90 30.1 30.05      
Jul 18 17:53 SSW 3 10 Clear CLR 87 67     51%   90 30.09 30.04      
Jul 18 16:53   10 Mostly Clear FEW049 88 68     52%   92 30.1 30.05      
Jul 18 15:53 S 7 10 Clear CLR 88 67     50%   91 30.09 30.04      
Jul 18 14:53 3 10 Clear CLR 88 69     54%   92 30.1 30.05      
Jul 18 13:53 Calm 10 Clear CLR 89 64     44%   90 30.12 30.07      
Jul 18 12:53 3 10 Clear CLR 87 66     50%   89 30.13 30.08      
Jul 18 11:53 Calm 10 Clear CLR 85 66     53%   87 30.14 30.09      
Jul 18 10:53 3 10 Clear CLR 83 68     61%   86 30.15 30.1      
Jul 18 09:53 3 10 Clear CLR 82 69     65%   85 30.13 30.08      
Jul 18 08:53 Calm 10 Clear CLR 78 70     76%   79 30.13 30.08      
Jul 18 05:53 Calm 6 Fog/Mist CLR 68 67     96%     30.09 30.03      
Jul 18 03:53 Calm 10 Clear CLR 70 68     93%     30.07 30.01      
Jul 18 02:53 Calm 8 Clear CLR 69 68     96%     30.06 30.01      
Jul 18 01:53 ESE 3 10 Clear CLR 70 69     97%     30.06 30.01      
Jul 18 00:53 Calm 10 Clear CLR 73 69     87%   74 30.06 30.01      
Jul 17 23:53 Calm 10 Clear CLR 72 68     87%   73 30.06 30.01      
Jul 17 22:53 Calm 10 Clear CLR 72 70     93%   73 30.04 29.99      
Jul 17 21:53 Calm 10 Clear CLR 75 70     84%   76 30.02 29.97      
Jul 17 20:53 SW 3 10 Clear CLR 79 71     77%   82 30.01 29.96      
Jul 17 19:53 S 5 10 Clear CLR 82 70     67%   86 30.02 29.96      
Jul 17 18:53 SSE 7 10 Clear CLR 87 69     55%   91 30.01 29.96      
Jul 17 17:53 SSE 3 10 Mostly Clear FEW050 89 66     47%   92 30.02 29.97      
Jul 17 14:53 SSE 5 10 Mostly Cloudy BKN050 87 67     51%   90 30.04 29.99      
Jul 17 13:53 S 5 10 Clear   87 68     53%   91 30.05 30      
Jul 17 12:53 Calm 10 Mostly Clear FEW047 88 65     47%   90 30.06 30.01      
Jul 17 11:53 Calm 10 Mostly Clear FEW043 87 64     46%   88 30.07 30.02      
Jul 17 10:53 6 10 Clear CLR 85 69     59%   89 30.07 30.01      
Jul 17 09:53 W 8 10 Clear CLR 83 72     70%   88 30.07 30.02      
Jul 17 08:53 W 5 10 Clear CLR 80 72     76%   84 30.06 30.01      
Jul 17 07:53 Calm 10 Clear CLR 76 71     85%   77 30.06 30.01      
Jul 17 06:53 Calm 6 Fog/Mist CLR 70 69     97%     30.05 29.99      
Jul 17 05:53 Calm 7 Clear CLR 67 67     100%     30.04 29.99      
Jul 17 04:53 Calm 9 Clear CLR 67 66     97%     30.02 29.97      
Jul 17 03:53 W 5 10 Clear CLR 70 68     93%     30 29.95      
Jul 17 02:53 Calm 10 Clear CLR 70 69     97%     30.01 29.96      
Jul 17 01:53 Calm 5 Fog/Mist CLR 70 69     97%     30.02 29.97      
Jul 17 00:53 SE 3 10 Clear CLR 71 70     96%   72 30.03 29.98      
Jul 16 23:53 Calm 10 Clear CLR 73 68     84%   74 30.03 29.98      
Jul 16 22:53 S 3 10 Clear CLR 76 69     79%   77 30.01 29.96      
Jul 16 21:53 Calm 10 Clear CLR 76 71     85%   77 30.01 29.96      
Jul 16 20:53 Calm 10 Clear CLR 78 70     76%   79 30.01 29.96      
Jul 16 19:53 Calm 10 Clear CLR 82 70     67%   86 29.99 29.94      
Jul 16 18:53 ENE 5 10 Clear CLR 87 69     55%   91 29.99 29.94      
Jul 16 17:53 NNE 6 10 Clear CLR 89 67     48%   92 29.99 29.94      
Jul 16 16:53 NNE 3 10 Partly Cloudy SCT050 89 67     48%   92 30.01 29.96      
Jul 16 15:53 5 10 Clear CLR 89 66     47%   92 30.02 29.96      
Jul 16 14:53 3 10 Clear CLR 89 68     50%   93 30.03 29.98      
Jul 16 13:53 Calm 10 Mostly Clear FEW040 87 68     53%   91 30.05 29.99      
Jul 16 12:53 Calm 10 Mostly Clear FEW055 86 70     59%   91 30.06 30.01      
Jul 16 11:53 5 10 Mostly Cloudy SCT030 BKN037 83 72     70%   88 30.09 30.03      
Jul 16 11:31 Calm 10 Mostly Cloudy SCT028 BKN038 BKN048 82 71     69%   86 30.09        
Jul 16 11:07 ESE 3 10 Mostly Cloudy BKN026 83 71     67%   88 30.1        
Jul 16 10:53 3 10 Mostly Clear FEW024 82 71     69%   86 30.1 30.04      
Jul 16 09:53 ESE 5 10 Clear CLR 80 73     79%   84 30.1 30.05      
Jul 16 09:00 E 3 9 Partly Cloudy SCT006 77 73     88%   79 30.11        
Jul 16 08:53 Calm 8 Mostly Cloudy BKN006 76 73     91%   77 30.11 30.06      
Jul 16 08:45 ENE 3 8 Mostly Cloudy BKN005 76 73     91%   77 30.11        
Jul 16 07:53 Calm 5 Fog/Mist OVC003 73 73     100%   75 30.1 30.05      
Jul 16 07:14 Calm 5 Fog/Mist BKN004 73 72     96%   75 30.11        
Jul 16 07:06 Calm 5 Fog/Mist SCT004 BKN047 BKN055 72 72     100%   74 30.1        
Jul 16 06:53 Calm 5 Fog/Mist SCT045 BKN055 71 71     100%   73 30.1 30.04      
Jul 16 05:53 Calm 5 Fog/Mist FEW042 70 70     100%     30.08 30.02      
Jul 16 04:53 Calm 4 Fog/Mist CLR 71 71     100%   73 30.07 30.01      
Jul 16 03:53 Calm 7 Mostly Cloudy BKN080 72 72     100%   74 30.06 30.01      
Jul 16 02:53 S 3 9 Clear CLR 72 72     100%   74 30.06 30.01      
Jul 16 01:53 NE 3 10 Cloudy OVC050 74 73     97%   76 30.08 30.02      
Jul 16 00:53 Calm 10 Cloudy OVC090 74 73     97%   76 30.08 30.03      
Jul 15 23:53 N 3 10 Cloudy FEW038 OVC095 76 73     91%   77 30.09 30.04      
Jul 15 22:53 Calm 10 Partly Cloudy SCT100 75 72     90%   76 30.09 30.04      
Jul 15 21:53 SSE 3 10 Partly Cloudy SCT070 77 72     84%   78 30.08 30.03      
Jul 15 20:53 Calm 10 Clear CLR 79 71     77%   82 30.07 30.02      
Jul 15 19:53 ESE 6 10 Clear CLR 83 70     65%   87 30.05 30.01      
Jul 15 18:53 ENE 6 10 Clear CLR 86 69     57%   90 30.05 30      
Jul 15 17:53 E 7 10 Clear CLR 87 70     57%   92 30.05 30      
Jul 15 16:53   10 Mostly Clear FEW039 88 70     55%   93 30.07 30.02      
Jul 15 15:53 E 3 10 Mostly Clear FEW037 88 69     54%   92 30.09 30.04      
Jul 15 14:53 ENE 8 10 Mostly Clear FEW037 FEW055 87 71     59%   93 30.12 30.07      
Jul 15 13:53 5 10 Mostly Cloudy BKN033 BKN046 87 71     59%   93 30.14 30.09      
Jul 15 12:53 SSE 3 10 Partly Cloudy SCT029 85 71     63%   90 30.15 30.11      
Jul 15 12:34 6 10 Partly Cloudy SCT027 85 71     63%   90 30.16        
Jul 15 12:27 NNE 6 10 Mostly Cloudy BKN026 84 71     65%   89 30.16        
Jul 15 11:53 E 5 10 Partly Cloudy SCT023 83 71     67%   88 30.16 30.11      
Jul 15 11:38 NE 7 10 Partly Cloudy SCT022 84 72     67%   90 30.16        
Jul 15 10:53 N 5 10 Mostly Cloudy BKN018 81 72     74%   85 30.17 30.12      
Jul 15 10:41 E 3 10 Mostly Cloudy BKN016 80 71     74%   84 30.17        
Jul 15 09:53 5 10 Mostly Cloudy BKN010 77 72     84%   78 30.17 30.13      
Jul 15 09:44 Calm 10 Cloudy OVC010 76 72     88%   77 30.18        
Jul 15 09:15 ENE 5 10 Mostly Cloudy BKN006 75 72     90%   76 30.18        
Jul 15 09:08 Calm 10 Mostly Cloudy BKN004 BKN007 74 72     94%   75 30.18        
Jul 15 08:53 3 7 Cloudy OVC002 73 72     96%   75 30.18 30.14      
Jul 15 08:51 Calm 3 Fog/Mist OVC002 73 72     94%   75 30.18        
Jul 15 08:39 Calm 1 Fog/Mist OVC002 72 72     100%   74 30.18        
Jul 15 08:28 ENE 3 0.75 Fog/Mist OVC002 72 72     100%   74 30.17        
Jul 15 08:25 NE 3 0.25 Fog OVC002 72 72     100%   74 30.17        
Jul 15 08:16 NE 3 0.5 Fog VV002 72 72     100%   74 30.17        
Jul 15 07:53 Calm 0.25 Fog VV002 71 71     100%   73 30.17 30.13      
Jul 15 06:53 Calm 0.25 Fog VV002 70 70     100%     30.17 30.12      
Jul 15 06:46 Calm 0.25 Fog VV002 70 70     100%     30.17        
Jul 15 06:36 Calm 0.5 Fog VV002 69 69     100%     30.16        
Jul 15 06:32 Calm 1.5 Fog/Mist BKN001 69 69     100%     30.17        
Jul 15 06:29 Calm 4 Fog/Mist BKN001 69 69     100%     30.16        
Jul 15 05:53 Calm 10 Mostly Clear FEW003 69 69     100%     30.15 30.1      
Jul 15 05:46 NW 5 10 Partly Cloudy SCT003 69 69     100%     30.15        
Jul 15 04:53 Calm 10 Clear CLR 70 70     100%     30.15 30.1      
Jul 15 03:53 Calm 10 Clear CLR 69 69     100%     30.14 30.09      
Jul 15 02:53 WNW 3 10 Clear CLR 70 69     97%     30.14 30.1      
Jul 15 01:53 Calm 10 Clear CLR 71 70     96%   72 30.14 30.09      
Jul 15 00:53 W 5 10 Clear CLR 71 71     100%   73 30.14 30.1     0
Jul 14 23:53 Calm 10 Clear CLR 72 71     97%   73 30.14 30.1      
Jul 14 22:53 Calm 10 Clear CLR 73 72     96%   75 30.14 30.09      
Jul 14 21:53 NNW 3 10 Cloudy OVC100 75 73     94%   77 30.14 30.09 0 0  
Jul 14 20:53 NNW 3 10 Mostly Clear FEW040 78 71     79%   79 30.14 30.09      
Jul 14 19:53 Calm 9 Clear CLR 81 71     72%   85 30.13 30.08      
Jul 14 18:53 NW 6 8 Mostly Cloudy BKN100 83 70     65%   87 30.13 30.08      
Jul 14 17:53 NW 7 10 Mostly Clear FEW110 84 69     61%   88 30.12 30.07      
Jul 14 16:53 NW 5 10 Partly Cloudy SCT120 84 72     67%   90 30.13 30.08      
Jul 14 15:53 NE 7 10 Clear CLR 84 71     65%   89 30.15 30.1      
Jul 14 14:53 N 3 10 Clear CLR 81 70     69%   84 30.16 30.12      
Jul 14 13:53 N 6 10 Clear CLR 82 70     67%   86 30.16 30.11      
Jul 14 12:53 NW 8 10 Clear CLR 84 70     63%   88 30.19 30.14      
Jul 14 11:53 NNW 9 10 Mostly Clear FEW027 82 70     67%   86 30.19 30.14      
Jul 14 11:00 NW 11 10 Partly Cloudy SCT016 SCT030 82 73     74%   87 30.19        
Jul 14 10:53 NW 9 10 Mostly Cloudy FEW011 BKN016 BKN030 81 73     77%   86 30.2 30.15      
Jul 14 10:39 NW 8 10 Cloudy BKN011 BKN016 OVC034 79 74     85%   83 30.2        
Jul 14 09:53 W 6 10 Cloudy OVC008 76 74     94%   78 30.19 30.14      
Jul 14 08:53 NNW 3 10 Cloudy OVC007 76 73     91%   77 30.19 30.14      
Jul 14 07:53 WNW 3 10 Mostly Cloudy BKN009 74 73     97%   76 30.17 30.13      
Jul 14 07:48 Calm 10 Mostly Cloudy BKN009 73 73     100%   75 30.17        
Jul 14 07:39 Calm 10 Partly Cloudy SCT009 74 73     97%   76 30.17        
Jul 14 06:53 Calm 10 Clear CLR 73 72     96%   75 30.16 30.11      
Jul 14 05:53 W 6 10 Clear CLR 73 72     96%   75 30.15 30.09      
Jul 14 04:53 NW 7 10 Mostly Clear FEW010 75 73     94%   77 30.14 30.09      
Jul 14 03:53 W 5 10 Mostly Clear FEW042 76 72     88%   77 30.14 30.09      
Jul 14 02:53 Calm 10 Mostly Cloudy BKN100 75 73     94%   77 30.14 30.09      
Jul 14 01:53 Calm 10 Cloudy OVC110 75 73     94%   77 30.14 30.09      
Jul 14 00:53 S 3 10 Clear CLR 76 73     91%   77 30.13 30.08      
Jul 13 23:53 S 3 10 Clear CLR 77 75     94%   79 30.14 30.08      
Jul 13 22:53 Calm 10 Clear CLR 78 75     90%   80 30.15 30.09      
Jul 13 21:53 S 3 10 Partly Cloudy FEW090 SCT110 79 74     85%   83 30.13 30.07      
Jul 13 20:53 Calm 10 Clear CLR 78 75     90%   80 30.1 30.05      
Jul 13 19:53 SSE 7 10 Clear CLR 82 75     79%   89 30.08 30.03      
Jul 13 18:53 S 7 10 Clear CLR 85 75     72%   93 30.07 30.02     0
Jul 13 17:53 S 3 10 Clear CLR 86 73     65%   93 30.09 30.03      
Jul 13 16:53 S 6 10 Partly Cloudy SCT110 82 71     69%   86 30.11 30.06      
Jul 13 15:53 S 5 10 Mostly Cloudy BKN110 77 73     88%   79 30.13 30.08 0 0  
Jul 13 15:50 S 6 10 Mostly Cloudy BKN110 75 72     89%   77 30.13   0    
Jul 13 15:35 SSE 5 10 Cloudy OVC100 77 70     79%   78 30.13   0    
Notice The following observation data may not be complete
Jul 13 15:23 SSW 8 10 Cloudy OVC100   71      %     30.13   0    
Notice The following observation data may not be complete
Jul 13 14:53 S 8 10 Light Rain FEW045 SCT085 OVC100   70      %     30.13 30.09 0    
Notice The following observation data may not be complete
Jul 13 14:49 SSW 9 10 Light Rain FEW047 OVC100   70      %     30.13   0    
Notice The following observation data may not be complete
Jul 13 14:42 S 9 10 Light Rain FEW046 BKN080 OVC100   69      %     30.13   0    
Jul 13 13:53 5 10 Mostly Cloudy SCT044 SCT050 BKN095 87 72     61%   94 30.14 30.09      
Jul 13 12:53 Calm 10 Mostly Clear FEW041 88 70     55%   93 30.15 30.09      
Jul 13 11:53 3 10 Partly Cloudy SCT039 89 72     57%   96 30.16 30.11      
Jul 13 10:53 WSW 6 10 Clear CLR 87 71     59%   93 30.17 30.11      
Jul 13 07:53 SE 5 10 Clear CLR 77 74     90%   79 30.15 30.1      
Jul 13 06:53 ESE 5 8 Partly Cloudy SCT110 74 72     94%   75 30.14 30.09      
Jul 13 05:53 SSW 6 10 Partly Cloudy SCT110 77 72     84%   78 30.13 30.08      
Jul 13 04:53 SW 5 10 Clear CLR 76 72     88%   77 30.13 30.07      
Jul 13 03:53 3 10 Clear CLR 75 72     90%   76 30.11 30.05      
Jul 13 02:53 S 6 10 Clear CLR 74 71     91%   75 30.08 30.02      
Jul 13 01:53 Calm 10 Clear CLR 74 72     94%   75 30.09 30.03      
Jul 13 00:53 SE 7 10 Clear CLR 75 72     90%   76 30.09 30.04      
Jul 12 23:53 S 3 10 Clear CLR 76 72     88%   77 30.1 30.04      
Jul 12 22:53 S 5 10 Clear CLR 78 72     82%   79 30.09 30.03      
Jul 12 21:53 S 6 10 Clear CLR 76 73     91%   77 30.07 30.02      
Jul 12 20:53 SSE 7 10 Clear CLR 79 73     82%   82 30.07 30.01      
Jul 12 19:53 SE 9 10 Clear CLR 82 72     72%   87 30.06 30.01      
Jul 12 18:53 E 9 10 Mostly Clear FEW050 84 72     67%   90 30.06 30.01      
Jul 12 18:38 E 10 10 Partly Cloudy SCT050 85 71     63%   90 30.05        
Jul 12 17:53 E 7 10 Mostly Cloudy BKN050 BKN060 BKN070 85 72     65%   91 30.05 30      
Jul 12 16:30 SE 5 10 Cloudy BKN050 BKN065 OVC090 87 73     63%   95 30.05        
Jul 12 15:53 S 8 10 Mostly Cloudy BKN050 87 72     61%   94 30.06 30      
Jul 12 14:53 WSW 6 10 Mostly Cloudy BKN050 BKN065 BKN075 91 71     52%   98 30.06 30.01      
Jul 12 12:53 3 10 Mostly Cloudy BKN046 BKN055 88 70     55%   93 30.09 30.03      
Jul 11 20:53 S 6 10 Clear CLR 79 73     82%   82 30 29.95      
Jul 11 19:53 S 7 10 Clear CLR 83 73     72%   89 29.99 29.94      
Jul 10 14:53 S 9 10 Mostly Clear FEW049 87 70     57%   92 30.03 29.98      
Jul 10 13:53 SW 8 10 Mostly Clear FEW040 87 69     55%   91 30.03 29.98      
Jul 10 12:53 S 10 10 Partly Cloudy SCT038 85 71     63%   90 30.04 29.99      
Jul 10 11:53 S 11 10 Clear CLR 85 71     63%   90 30.05 30      
Jul 10 10:53 S 13 10 Clear CLR 83 71     67%   88 30.06 30.01      
Jul 10 09:53 SSE 9 10 Clear CLR 81 71     72%   85 30.07 30.02      
Jul 10 07:53 SSE 6 10 Clear CLR 72 69     91%   73 30.05 30.01      
Jul 10 06:53 SSE 6 10 Clear CLR 69 68     96%     30.05 30.01      
Jul 10 05:53 SSE 6 10 Clear CLR 67 66     97%     30.04 30      
Jul 10 04:53 Calm 10 Clear CLR 69 67     93%     30.03 29.98      
Jul 10 03:53 ESE 3 10 Clear CLR 70 67     90%     30.04 29.98      
Jul 10 02:53 Calm 10 Clear CLR 70 67     90%     30.03 29.98      
Jul 10 01:53 SE 5 10 Clear CLR 71 67     87%   72 30.03 29.98      
Jul 10 00:53 S 5 10 Clear CLR 73 67     81%   74 30.05 30      
Jul 09 23:53 Calm 10 Clear CLR 74 67     79%   75 30.06 30      
Jul 09 22:53 S 6 10 Clear CLR 73 68     84%   74 30.06 30.01      
Jul 09 21:53 SSE 3 10 Clear CLR 75 68     79%   76 30.06 30.01      
Jul 09 19:53 S 6 10 Clear CLR 80 69     69%   83 30.04 30      
Jul 09 17:53 S 8 10 Clear CLR 85 68     57%   88 30.04 29.99      
Jul 09 15:53 S 10 10 Clear CLR 87 67     51%   90 30.09 30.04      
Jul 09 13:53 S 9 10 Clear CLR 86 68     55%   89 30.11 30.06      
Jul 09 12:53 S 10 10 Clear CLR 86 67     53%   89 30.12 30.07      
Jul 09 11:53 SSW 7 10 Clear CLR 84 67     57%   87 30.13 30.08      
Jul 09 09:53 SSE 9 10 Clear CLR 81 71     72%   85 30.13 30.09      
Jul 09 08:53 SSE 6 10 Clear CLR 75 72     90%   76 30.13 30.08      
Jul 09 08:06 SE 5 4 Fog/Mist SCT001 70 70     100%     30.12        
Jul 09 08:01 SE 5 2 Fog/Mist BKN001 70 70     100%     30.12        
Jul 09 07:40 SE 5 0.25 Fog VV001 68 68     100%     30.12        
Jul 09 07:29 SE 5 0.75 Fog/Mist VV001 68 68     100%     30.12        
Jul 09 06:53 SSE 5 0.25 Fog VV001 67 67     100%     30.12 30.07      
Jul 09 06:20 SE 5 0.25 Fog VV001 66 66     100%     30.12        
Jul 09 06:13 SE 5 0.5 Fog VV001 66 66     100%     30.12        
Jul 09 06:11 SE 5 1.25 Fog/Mist BKN001 66 66     100%     30.11        
Jul 09 06:08 ESE 3 2.5 Fog/Mist SCT001 66 66     100%     30.12        
Jul 09 06:06 Calm 1 Fog/Mist VV001 66 66     100%     30.11        
Jul 09 05:57 ESE 3 0.5 Fog VV001 67 67     100%     30.11        
Jul 09 05:55 ESE 5 1.25 Fog/Mist FEW002 67 67     100%     30.11        
Jul 09 05:53 ESE 5 4 Fog/Mist CLR 68 68     100%     30.11 30.06      
Jul 09 05:22 SW 5 9 Clear CLR 69 69     100%     30.11        
Jul 09 05:13 SW 5 1 Fog/Mist CLR 68 68     100%     30.11        
Jul 09 05:05 WSW 3 0.5 Fog CLR 67 67     100%     30.11        
Jul 09 05:00 Calm 1.5 Fog/Mist CLR 68 68     100%     30.11        
Jul 09 04:53 Calm 4 Fog/Mist CLR 68 68     100%     30.11 30.06      
Jul 09 04:16 Calm 3 Fog/Mist CLR 68 68     100%     30.11        
Jul 09 04:11 Calm 1 Fog/Mist CLR 68 68     100%     30.11        
Jul 09 04:05 Calm 0.5 Fog VV003 68 68     100%     30.11        
Jul 09 03:53 Calm 1.25 Fog/Mist CLR 69 69     100%     30.11 30.06      
Jul 09 03:49 Calm 1.75 Fog/Mist CLR 68 68     100%     30.11        
Jul 09 02:53 Calm 4 Fog/Mist CLR 69 69     100%     30.12 30.07      
Jul 09 01:53 Calm 10 Clear CLR 71 69     93%   72 30.13 30.09      
Jul 09 00:53 SW 3 10 Clear CLR 69 68     96%     30.13 30.09      
Jul 08 23:53 SW 3 10 Clear CLR 70 69     97%     30.14 30.09      
Jul 08 22:53 Calm 10 Mostly Clear FEW034 73 69     87%   74 30.12 30.08      
Jul 08 21:53 Calm 10 Clear CLR 73 69     87%   74 30.11 30.07      
Jul 08 20:53 ESE 5 10 Clear CLR 78 69     74%   79 30.09 30.04      
Jul 08 19:53 E 5 10 Clear CLR 82 69     65%   85 30.07 30.02      
Jul 08 18:53 E 7 10 Clear CLR 84 67     57%   87 30.07 30.02      
Jul 08 15:53 E 7 10 Clear CLR 87 70     57%   92 30.09 30.04      
Jul 08 14:53 3 10 Mostly Clear FEW035 87 71     59%   93 30.1 30.06      
Jul 08 13:53 SSW 3 10 Clear CLR 85 71     63%   90 30.12 30.08      
Jul 08 12:53 ESE 3 10 Partly Cloudy FEW023 SCT039 83 71     67%   88 30.15 30.1      
Jul 08 11:53 SE 7 10 Clear CLR 81 71     72%   85 30.15 30.1      
Jul 08 10:53 E 6 10 Clear CLR 79 69     72%   80 30.14 30.1      
Jul 08 09:53 SE 6 10 Clear CLR 77 69     77%   78 30.14 30.09      
Jul 08 08:53 Calm 10 Partly Cloudy SCT033 74 70     87%   75 30.13 30.08      
Jul 08 07:53 Calm 9 Mostly Clear FEW032 69 68     96%     30.12 30.08      
Jul 08 06:53 Calm 10 Mostly Cloudy BKN039 BKN047 69 68     96%     30.11 30.06     1
Jul 08 04:53 W 3 10 Clear CLR 67 66     97%     30.08 30.02 0    
Jul 08 03:53 WNW 8 10 Light Rain SCT120 67 66     97%     30.08 30.02 0 1  
Jul 08 03:29 W 9 10 Light Rain SCT110 67 67     100%     30.07   0    
Jul 08 03:14 NW 7 9 Thunderstorms and Rain BKN110 67 67     100%     30.07   0    
Jul 08 03:06 NNW 6 7 Light Rain BKN120 67 67     100%     30.06   0    
Jul 08 02:53 Calm 9 Thunderstorms and Rain OVC120 67 67     100%     30.07 30.02 1    
Jul 08 02:30 S 6 9 Thunderstorms and Rain SCT023 BKN080 BKN100 68 66     93%     30.06   1    
Jul 08 02:23 SSW 7 2 Thunderstorms and Rain and Fog/Mist BKN025 OVC075 68 67     96%     30.05   1    
Jul 08 02:14 SSW 10 0.75 Thunderstorms and Heavy Rain and Fog/Mist FEW010 BKN017 OVC027 67 66     97%     30.07   1    
Jul 08 02:01   1.5 Thunderstorms and Heavy Rain and Fog/Mist FEW009 SCT020 OVC028 69 68     96%     30.1   0    
Jul 08 01:53   4 Thunderstorms and Heavy Rain and Fog/Mist FEW009 BKN026 OVC049 70 69     97%     30.09 30.03 0    
Jul 08 01:51   4 Thunderstorms and Heavy Rain and Fog/Mist FEW013 BKN026 OVC049 72 70     94%   73 30.08   0    
Jul 08 01:02 WSW 3 10 Mostly Cloudy FEW026 SCT050 BKN090 72 69     91%   73 30.06        
Jul 08 00:53 NNW 3 10 Mostly Cloudy FEW026 SCT049 BKN075 72 69     91%   73 30.06 30.01     0
Jul 07 23:53 W 3 10 Mostly Cloudy BKN045 73 68     84%   74 30.07 30.02      
Jul 07 22:53 WSW 6 10 Clear CLR 72 71     97%   73 30.06 30.02 0    
Jul 07 22:06 WNW 3 10 Clear CLR 73 69     87%   74 30.05   0    
Jul 07 21:53 WNW 6 10 Light Rain FEW110 73 69     87%   74 30.03 29.98 0 0  
Jul 07 21:42 NW 6 10 Light Rain FEW110 73 69     87%   74 30.02   0    
Jul 07 21:08 NW 5 3 Thunderstorms and Rain and Fog/Mist FEW032 BKN041 BKN110 72 68     87%   73 30.05   0    
Jul 07 21:03 N 11 1.75 Thunderstorms and Heavy Rain and Fog/Mist BKN035 BKN043 73 69     87%   74 30.05   0    
Jul 07 20:53   10 Thunderstorms and Rain SCT033 BKN043 BKN055 82 73     74%   87 30.05 30 0    
Notice The following observation data may not be complete
Jul 07 20:42   10 Partly Cloudy FEW045 SCT060          %              
Jul 07 19:53 W 5 10 Clear CLR 83 74     74%   89 30.03 29.98      
Jul 07 18:53 W 6 10 Clear CLR 88 73     61%   96 30 29.96      
Jul 07 17:53 W 8 10 Clear CLR 90 73     58%   98 30.01 29.97      
Jul 07 14:53 WSW 7 10 Clear CLR 90 72     56%   97 30.06 30.01      
Jul 07 13:53 W 9 10 Clear CLR 90 72     56%   97 30.08 30.03      
Jul 07 12:53 WNW 7 10 Clear CLR 88 71     57%   94 30.1 30.04      
Jul 07 11:53 SW 8 10 Clear CLR 87 71     59%   93 30.11 30.06      
Jul 07 10:53 SW 5 10 Clear CLR 84 71     65%   89 30.13 30.08      
Jul 07 09:53 W 8 10 Clear CLR 82 70     67%   86 30.12 30.08      
Jul 07 07:53 Calm 10 Clear CLR 72 70     93%   73 30.12 30.08      
Jul 07 06:53 Calm 9 Clear CLR 67 67     100%     30.1 30.06      
Jul 07 06:15 SSE 3 8 Clear CLR 66 66     100%     30.1        
Jul 07 06:06 SSE 5 2 Fog/Mist CLR 65 65     100%     30.1        
Jul 07 05:53 Calm 9 Clear CLR 66 66     100%     30.1 30.06      
Jul 07 04:53 Calm 10 Clear CLR 67 67     100%     30.1 30.05      
Jul 07 03:53 W 5 10 Clear CLR 69 67     93%     30.09 30.04      
Jul 07 02:53 WSW 3 10 Clear CLR 69 67     93%     30.09 30.05      
Jul 07 01:53 W 5 10 Clear CLR 70 68     93%     30.1 30.05      
Jul 07 00:53 W 3 10 Clear CLR 70 68     93%     30.11 30.07      
Jul 06 23:53 W 5 10 Clear CLR 70 68     93%     30.11 30.07      
Jul 06 22:53 Calm 10 Clear CLR 70 69     97%     30.11 30.07      
Jul 06 21:53 WSW 5 10 Clear CLR 72 70     93%   73 30.09 30.05      
Jul 06 20:53 Calm 10 Clear CLR 75 70     84%   76 30.09 30.04      
Jul 06 19:53 WNW 3 10 Clear CLR 80 70     71%   83 30.08 30.03      
Jul 06 18:53 NW 6 10 Clear CLR 82 69     65%   85 30.08 30.03      
Jul 06 17:53 NW 7 10 Mostly Clear FEW038 83 68     61%   86 30.09 30.04      
Jul 06 16:53 W 7 10 Clear CLR 84 68     59%   87 30.09 30.04      
Jul 06 15:53 WNW 9 10 Clear CLR 84 68     59%   87 30.09 30.05      
Jul 06 14:53 WNW 9 10 Clear CLR 83 69     63%   87 30.11 30.06      
Jul 06 13:53 NNW 9 10 Partly Cloudy FEW039 SCT055 82 71     69%   86 30.12 30.08      
Jul 06 10:37 WNW 7 10 Cloudy SCT017 OVC040 78 70     76%   79 30.13        
Jul 05 17:53 W 9 10 Clear CLR 80 68     67%   83 30 29.96      
Jul 05 16:53 WNW 9 10 Mostly Clear FEW031 FEW039 80 69     69%   83 30.02 29.97      
Jul 05 15:53 W 9 10 Mostly Cloudy FEW031 SCT070 BKN080 82 70     67%   86 30.02 29.98      
Jul 05 14:53 W 10 10 Cloudy BKN033 BKN045 OVC075 82 69     65%   85 30.03 29.98      
Jul 05 13:53 W 10 10 Mostly Clear FEW032 82 68     63%   85 30.02 29.98      
Jul 05 12:53 W 9 10 Mostly Clear FEW023 FEW030 81 70     69%   84 30.03 29.98      
Jul 05 11:53 W 8 10 Partly Cloudy FEW019 SCT028 SCT035 79 71     77%   82 30.04 30      
Jul 05 11:44 W 9 10 Mostly Clear FEW028 FEW035 79 71     77%   82 30.04        
Jul 05 11:15 W 8 10 Mostly Cloudy SCT019 BKN025 BKN030 77 71     82%   78 30.05        
Jul 05 10:53 WNW 6 10 Partly Cloudy FEW025 FEW033 SCT043 77 72     84%   78 30.05 30.01      
Jul 05 10:22 NW 7 10 Mostly Cloudy FEW018 SCT024 BKN032 76 72     88%   77 30.06        
Jul 05 09:53 WNW 6 10 Cloudy BKN017 OVC026 75 72     90%   76 30.06 30.02      
Jul 05 09:34 NNW 5 10 Mostly Cloudy FEW007 SCT014 BKN020 75 73     94%   77 30.05        
Jul 05 08:53 S 5 10 Partly Cloudy FEW007 SCT023 74 72     94%   75 30.04 30.01      
Jul 05 08:43 SSE 3 10 Mostly Clear FEW007 74 72     94%   75 30.04        
Jul 05 07:53 W 3 10 Clear CLR 73 71     94%   74 30.02 29.98      
Jul 05 06:53 SE 3 8 Mostly Clear FEW025 69 69     100%     30.02 29.98      
Jul 05 06:24 ESE 5 9 Partly Cloudy FEW024 SCT030 69 69     100%     30.01        
Jul 05 05:53 SE 5 10 Mostly Cloudy BKN024 69 69     100%     30 29.97      
Jul 05 04:53 ESE 3 10 Cloudy OVC120 68 68     100%     29.99 29.95      
Jul 05 04:01 Calm 6 Fog/Mist FEW002 SCT120 68 68     100%     29.98        
Jul 05 03:53 ESE 5 9 Mostly Cloudy BKN120 68 68     100%     29.98 29.95      
Jul 05 02:53 SE 7 10 Mostly Clear FEW043 69 69     100%     30 29.96      
Jul 05 01:53 S 3 8 Clear CLR 69 69     100%     30.01 29.97      
Jul 05 00:53 S 7 8 Cloudy FEW003 SCT028 OVC070 69 69     100%     30.03 29.99     0
Jul 05 00:43 SSE 8 7 Cloudy SCT003 OVC065 70 70     100%     30.03        
Jul 05 00:33 SSE 8 7 Cloudy BKN002 OVC060 70 70     100%     30.02        
Jul 05 00:00 SSE 3 3 Fog/Mist BKN003 OVC065 70 70     100%     30.02        
Jul 04 23:53 S 3 4 Fog/Mist SCT003 OVC065 70 70     100%     30.03 29.99 0    
Jul 04 23:05 S 6 3 Light Rain and Fog/Mist SCT003 BKN043 OVC060 70 70     100%     30.02   0    
Jul 04 22:53 Calm 1.25 Heavy Rain and Fog/Mist BKN003 BKN030 OVC050 70 70     100%     30.02 29.98 0    
Jul 04 22:38 S 5 1.75 Rain and Fog/Mist BKN003 BKN028 OVC055 70 70     100%     30.03   0    
Jul 04 22:25 SSE 7 2 Fog/Mist SCT003 BKN042 OVC060 70 70     100%     30.02   0    
Jul 04 22:15 SSE 6 3 Fog/Mist SCT003 BKN049 OVC060 70 70     100%     30.02   0    
Jul 04 21:53 ESE 5 3 Light Rain and Fog/Mist BKN003 OVC065 70 70     100%     30.01 29.97 0 0  
Jul 04 21:49 Calm 3 Light Rain and Fog/Mist OVC003 70 70     100%     30.01   0    
Jul 04 21:38 SSE 5 2.5 Fog/Mist OVC003 70 70     100%     30.01   0    
Jul 04 21:26 SE 5 3 Fog/Mist BKN004 BKN070 OVC085 70 70     100%     30.01   0    
Jul 04 21:16 SE 5 3 Light Rain and Fog/Mist BKN005 OVC070 70 70     100%     30.01   0    
Jul 04 20:53 SSE 3 10 Cloudy BKN004 BKN050 OVC070 70 70     100%     30 29.97 0    
Jul 04 20:42 Calm 7 Light Rain BKN004 BKN038 OVC049 70 70     100%     30   0    
Jul 04 20:35 Calm 9 Cloudy BKN005 BKN026 OVC040 70 70     100%     30   0    
Jul 04 20:24 Calm 3 Light Rain and Fog/Mist FEW005 BKN040 OVC049 70 70     100%     30   0    
Jul 04 20:08 S 3 1.75 Heavy Rain and Fog/Mist FEW006 BKN034 OVC040 70 70     100%     30   0    
Jul 04 19:53 Calm 6 Light Rain and Fog/Mist FEW005 BKN036 OVC060 71 70     96%   72 30 29.96 0    
Jul 04 19:24 Calm 10 Cloudy FEW007 BKN060 OVC100 71 70     96%   72 29.99   0    
Jul 04 19:06 E 6 7 Light Rain SCT007 BKN016 OVC050 71 70     96%   72 29.98   0    
Jul 04 18:53 SSE 3 10 Light Rain FEW007 BKN034 OVC045 71 70     96%   72 29.98 29.94 1   1
Jul 04 18:44 E 3 10 Cloudy FEW006 BKN037 OVC048 71 70     96%   72 29.98   1    
Jul 04 18:30 SE 3 3 Light Rain and Fog/Mist SCT025 BKN037 OVC050 71 70     96%   72 29.98   1    
Jul 04 18:14 NE 3 1 Heavy Rain and Fog/Mist FEW005 BKN019 OVC055 70 68     93%     29.98   1    
Jul 04 18:06 5 0.5 Heavy Rain and Fog FEW006 BKN016 OVC025 70 68     93%     29.98   0    
Jul 04 18:00 WNW 8 0.25 Heavy Rain and Fog SCT005 BKN014 OVC026 70 68     93%     29.99   0    
Jul 04 17:53   0.75 Heavy Rain and Fog/Mist SCT005 BKN012 OVC026 71 70     96%   72 29.99 29.95 0    
Jul 04 17:46 Calm 1.75 Heavy Rain and Fog/Mist FEW007 BKN026 OVC060 72 70     93%   73 29.99   0    
Jul 04 17:36 E 5 10 Light Rain SCT007 BKN026 OVC080 72 70     93%   73 29.99   0    
Jul 04 16:53 ENE 6 10 Mostly Cloudy FEW005 SCT085 BKN120 72 71     97%   73 29.99 29.95 0    
Jul 04 16:23 E 8 3 Light Rain and Fog/Mist FEW008 BKN050 OVC090 71 71     100%   73 30   0    
Jul 04 16:19 ESE 8 2.5 Heavy Rain and Fog/Mist SCT008 BKN019 OVC065 71 70     96%   72 30   0    
Jul 04 15:53 E 9 10 Cloudy BKN007 OVC021 71 70     96%   72 30 29.97 0 0  
Jul 04 15:37 ESE 6 10 Light Rain SCT009 BKN014 OVC037 72 72     100%   74 30.01   0    
Jul 04 15:25 E 9 7 Light Rain BKN012 BKN022 OVC080 72 71     97%   73 30   0    
Jul 04 15:05 ESE 9 3 Rain and Fog/Mist SCT014 BKN022 OVC075 72 70     93%   73 30   0    
Jul 04 14:53 ESE 7 1 Heavy Rain and Fog/Mist BKN012 BKN017 OVC032 72 69     91%   73 30.01 29.97 0    
Jul 04 14:51 ESE 6 1.75 Heavy Rain and Fog/Mist BKN012 BKN017 OVC026 72 70     94%   73 30.01   0    
Jul 04 13:53 E 10 10 Cloudy BKN010 OVC018 73 69     87%   74 30.02 29.98      
Jul 04 12:53 E 10 10 Cloudy OVC006 71 69     93%   72 30.04 30 0   0
Jul 04 12:13 E 8 8 Cloudy OVC004 70 70     100%     30.06        
Jul 04 11:53 E 9 10 Cloudy OVC005 72 70     93%   73 30.06 30.02      
Jul 04 10:53 E 9 10 Cloudy OVC009 73 70     90%   74 30.06 30.01      
Jul 04 10:50 E 9 10 Cloudy OVC009 73 70     89%   75 30.06        
Jul 04 10:09 E 9 10 Cloudy OVC010 74 70     87%   75 30.04        
Jul 04 09:53 E 8 10 Cloudy BKN008 BKN014 OVC022 73 70     90%   74 30.05 30 0 0  
Jul 04 09:17 ENE 10 10 Light Rain FEW005 BKN013 OVC090 71 71     100%   73 30.03   0    
Jul 04 08:53 SE 8 10 Cloudy FEW049 OVC065 70 70     100%     30.04 30      
Jul 04 08:27 SSE 9 10 Mostly Cloudy SCT004 BKN065 70 70     100%     30.04        
Jul 04 08:05 SE 9 7 Cloudy BKN003 OVC085 71 71     100%   73 30.03        
Jul 04 07:53 SE 9 10 Cloudy SCT003 OVC090 70 70     100%     30.03 29.98 0    
Jul 04 07:06 SE 3 8 Light Rain OVC110 68 68     100%     30.02   0    
Jul 04 06:53 WSW 3 8 Light Rain BKN110 69 69     100%     30.03 29.98 1   1
Jul 04 06:21 S 7 3 Heavy Rain and Fog/Mist FEW019 BKN033 OVC085 69 69     100%     30.04   1    
Jul 04 06:14 S 8 2 Thunderstorms and Heavy Rain and Fog/Mist FEW005 FEW017 OVC033 70 69     97%     30.04   1    
Jul 04 06:08 S 11 1 Thunderstorms and Heavy Rain and Fog/Mist FEW005 BKN023 OVC039 70 70     100%     30.05   1    
Jul 04 06:04 S 10 0.75 Thunderstorms and Heavy Rain and Fog/Mist FEW005 BKN014 OVC041 70 70     100%     30.04   1    
Jul 04 05:59 S 11 1 Thunderstorms and Heavy Rain and Fog/Mist SCT006 BKN019 OVC041 71 71     100%   73 30.04   0    
Jul 04 05:56   2.5 Thunderstorms and Rain and Fog/Mist FEW006 SCT019 OVC040 70 70     100%     30.04   0    
Jul 04 05:53 S 10 8 Thunderstorms FEW019 BKN040 OVC110 70 70     100%     30.03 29.98      
Jul 04 05:46 S 7 10 Thunderstorms BKN042 BKN060 OVC120 71 70     96%   72 30.01        
Jul 04 04:53 ESE 5 10 Partly Cloudy FEW070 SCT100 71 70     96%   72 30 29.95      
Jul 04 03:53 SSE 5 10 Mostly Clear FEW100 71 70     96%   72 30.02 29.97      
Jul 04 00:53 SE 7 10 Clear CLR 73 70     90%   74 30.04 29.99      
Jul 03 23:53 S 5 10 Clear CLR 72 70     93%   73 30.05 30      
Jul 03 22:53 SSE 6 10 Clear CLR 73 71     94%   74 30.04 30      
Jul 03 21:53 ESE 5 10 Clear CLR 76 71     85%   77 30.03 29.98      
Jul 03 20:53 ESE 6 10 Clear CLR 77 70     79%   78 30.02 29.98      
Jul 03 19:53 E 8 10 Partly Cloudy SCT038 81 70     69%   84 30.01 29.97      
Jul 03 18:53 Calm 10 Clear CLR 84 68     59%   87 30.01 29.96      
Jul 03 17:53 NNW 5 10 Clear CLR 84 68     59%   87 30.02 29.97      
Jul 03 16:53 NNW 5 10 Mostly Clear FEW045 86 68     55%   89 30.03 29.98      
Jul 03 15:53 NW 6 10 Clear CLR 84 68     59%   87 30.04 29.99      
Jul 03 14:53 NNW 5 10 Partly Cloudy SCT033 84 69     61%   88 30.04 29.99      
Jul 03 12:53 3 10 Partly Cloudy SCT044 79 70     74%   82 30.07 30.02     0
Jul 03 12:32 NW 3 10 Cloudy FEW018 BKN041 OVC048 77 69     77%   78 30.07        
Jul 03 12:20 6 10 Mostly Cloudy SCT018 BKN026 BKN048 77 70     79%   78 30.08        
Jul 03 11:53 Calm 10 Mostly Cloudy SCT019 SCT024 BKN042 77 69     77%   78 30.08 30.04      
Jul 03 11:45 WSW 3 10 Mostly Cloudy SCT017 BKN022 BKN040 76 69     79%   77 30.08        
Jul 03 11:27 SE 3 10 Partly Cloudy FEW014 SCT019 76 69     79%   77 30.08        
Jul 03 10:53 3 10 Mostly Cloudy FEW010 BKN016 75 70     84%   76 30.08 30.04 0    
Jul 03 10:31 3 10 Partly Cloudy FEW010 SCT017 73 69     87%   74 30.08   0    
Jul 03 10:17 Calm 10 Mostly Cloudy SCT008 BKN013 BKN033 73 69     87%   74 30.08   0    
Jul 03 09:53 NNE 5 10 Light Rain SCT006 OVC036 73 70     90%   74 30.08 30.04 0 0  
Jul 03 09:21 Calm 10 Mostly Cloudy BKN006 BKN010 BKN100 72 70     93%   73 30.08   0    
Jul 03 08:53 Calm 10 Light Rain FEW006 OVC110 71 70     96%   72 30.07 30.02 0    
Jul 03 08:02 SSW 5 10 Mostly Cloudy SCT003 BKN110 69 68     96%     30.05        
Jul 03 07:53 SSW 3 10 Partly Cloudy SCT110 68 68     100%     30.05 30      
Jul 03 07:27 SSW 3 10 Mostly Cloudy SCT004 BKN080 68 68     100%     30.05        
Jul 03 07:19 S 5 9 Cloudy BKN004 OVC080 68 68     100%     30.05        
Jul 03 07:04 SSE 6 10 Cloudy SCT005 OVC080 68 68     100%     30.04        
Jul 03 06:53 SE 7 10 Cloudy BKN005 OVC080 68 68     100%     30.04 29.99 0   0
Jul 03 06:49 SE 6 10 Cloudy BKN005 OVC080 68 68     100%     30.04   0    
Jul 03 06:06 E 9 10 Cloudy OVC004 69 69     100%     30.05        
Jul 03 05:53 E 6 9 Cloudy OVC006 69 69     100%     30.04 29.99 0    
Jul 03 05:18 NE 3 5 Light Rain and Fog/Mist BKN008 BKN110 69 69     100%     30.04   0    
Jul 03 05:09 N 3 5 Fog/Mist SCT008 BKN110 68 68     100%     30.03        
Jul 03 04:53 Calm 8 Mostly Clear FEW110 68 68     100%     30.03 29.98 0    
Jul 03 03:53 Calm 7 Light Rain BKN110 68 68     100%     30.04 29.99 0 0  
Jul 03 02:53 SE 8 7 Rain SCT004 OVC100 69 69     100%     30.03 29.98 0    
Jul 03 02:31 SSE 7 9 Light Rain BKN005 BKN110 69 69     100%     30.04   0    
Jul 03 01:53 S 11 10 Light Rain FEW003 SCT110 68 68     100%     30.05 30 0    
Jul 03 01:43 SSE 11 10 Light Rain SCT003 68 68     100%     30.05   0    
Jul 03 01:24 SSE 8 9 Mostly Cloudy BKN003 68 68     100%     30.04        
Jul 03 01:13 SSE 9 10 Partly Cloudy SCT004 68 68     100%     30.04        
Jul 03 00:53 SSE 6 9 Mostly Clear FEW100 68 68     100%     30.03 29.99 0   0
Jul 02 23:53 Calm 10 Light Rain FEW006 BKN100 BKN120 68 68     100%     30.08 30.04 0    
Jul 02 23:33 Calm 7 Rain FEW008 FEW080 OVC110 68 68     100%     30.11   0    
Jul 02 22:53 NW 8 10 Light Rain BKN120 69 69     100%     30.1 30.06 0    
Jul 02 22:41 NW 9 9 Light Rain FEW046 BKN110 69 68     96%     30.1   0    
Jul 02 21:53 SW 9 6 Light Rain and Fog/Mist FEW025 BKN041 OVC055 76 73     91%   77 30.09 30.05 0 0  
Jul 02 20:53 S 5 10 Clear CLR 80 72     76%   84 30.06 30.01      
Jul 02 19:53 ESE 6 10 Clear CLR 82 72     72%   87 30.06 30.01      
Jul 02 18:53 ESE 6 10 Clear CLR 83 72     70%   88 30.05 30.01      
Jul 02 17:53 SE 7 10 Mostly Clear FEW047 85 71     63%   90 30.04 30      
Jul 02 16:53 E 8 10 Mostly Cloudy FEW037 SCT045 BKN055 85 72     65%   91 30.05 30.01      
Jul 02 15:53 S 5 10 Partly Cloudy SCT041 87 71     59%   93 30.09 30.05      
Jul 02 14:53 SW 5 10 Clear CLR 86 69     57%   90 30.12 30.07      
Jul 02 13:53 6 10 Partly Cloudy SCT037 SCT048 85 70     61%   89 30.14 30.09      
Jul 02 12:53 Calm 10 Clear CLR 84 69     61%   88 30.14 30.09      
Jul 02 11:53 3 10 Mostly Clear FEW031 83 69     63%   87 30.16 30.11      
Jul 02 10:53 3 10 Clear CLR 81 68     65%   84 30.16 30.12      
Jul 02 09:53 E 7 10 Clear CLR 79 66     65%   80 30.17 30.12      
Jul 02 09:31 SE 6 10 Mostly Clear FEW002 78 65     64%   79 30.17        
Jul 02 08:53 SSE 6 10 Clear CLR 76 65     69%   76 30.18 30.14      
Jul 02 07:53 Calm 10 Clear CLR 72 66     82%   73 30.17 30.13      
Jul 02 06:53 Calm 10 Clear CLR 65 65     100%     30.15 30.11      
Jul 02 05:53 Calm 10 Clear CLR 64 63     96%     30.12 30.08      
Jul 02 04:53 WSW 3 10 Clear CLR 64 63     96%     30.11 30.07      
Jul 02 03:53 Calm 10 Clear CLR 64 63     96%     30.1 30.06      
Jul 02 02:53 Calm 10 Clear CLR 66 64     93%     30.1 30.05      
Jul 02 01:53 WSW 3 10 Clear CLR 67 65     93%     30.11 30.06      
Jul 02 00:53 W 3 10 Clear CLR 67 65     93%     30.12 30.08      
Jul 01 23:53 Calm 10 Clear CLR 69 67     93%     30.12 30.08      
Jul 01 22:53 NNW 3 10 Mostly Cloudy BKN042 70 68     93%     30.13 30.09      
Jul 01 21:53 Calm 10 Clear CLR 72 66     82%   73 30.11 30.07      
Jul 01 20:53 N 5 10 Clear CLR 75 67     76%   76 30.1 30.05      
Jul 01 19:53 Calm 10 Clear CLR 80 71     74%   84 30.08 30.03      
Jul 01 18:53 NNW 5 10 Clear CLR 81 70     69%   84 30.07 30.03      
Jul 01 17:53 NW 5 10 Mostly Clear FEW046 82 69     65%   85 30.07 30.02      
Jul 01 16:53 NW 5 10 Partly Cloudy SCT034 SCT060 82 70     67%   86 30.07 30.02      
Jul 01 15:53 6 10 Cloudy FEW037 FEW050 OVC090 84 69     61%   88 30.09 30.04      
Jul 01 14:53 NNW 8 10 Mostly Clear FEW036 85 71     63%   90 30.09 30.04      
Jul 01 13:53 5 10 Mostly Clear FEW035 83 69     63%   87 30.1 30.06      
Jul 01 12:53 W 5 10 Mostly Cloudy BKN100 81 70     69%   84 30.12 30.07      
Jul 01 11:53 3 10 Mostly Cloudy FEW016 SCT065 BKN085 79 71     77%   82 30.12 30.08      
Jul 01 10:53 WNW 6 10 Mostly Cloudy SCT070 BKN095 77 71     82%   78 30.12 30.07      
Jul 01 09:53 NW 7 10 Mostly Cloudy FEW009 BKN085 74 70     87%   75 30.1 30.06      
Jul 01 09:01 NW 7 10 Mostly Cloudy SCT008 BKN085 72 69     91%   73 30.08        
Jul 01 07:53 W 6 10 Mostly Clear FEW100 70 67     90%     30.08 30.03      
Jul 01 06:53 N 3 10 Mostly Cloudy BKN085 BKN100 69 66     90%     30.07 30.02      
Jul 01 06:26 W 3 10 Mostly Cloudy SCT025 SCT075 BKN095 70 65     84%     30.06        
Jul 01 05:53 W 5 10 Mostly Cloudy BKN025 BKN085 70 66     87%     30.07 30.02      
Jul 01 04:53 SW 6 10 Cloudy FEW060 OVC085 69 67     93%     30.03 29.98      
Jul 01 03:53 W 5 10 Mostly Cloudy BKN110 69 67     93%     30.01 29.97      
Jul 01 01:53 SW 3 10 Mostly Clear FEW075 69 68     96%     30.01 29.97      
Jul 01 00:53 SSE 7 10 Mostly Cloudy FEW010 SCT019 BKN037 71 70     96%   72 30.03 29.99 0   0
Jun 30 23:53 6 8 Light Rain FEW030 BKN046 OVC100 72 71     97%   73 30.04 30.01 0    
Jun 30 23:28 W 6 10 Light Rain FEW046 BKN055 BKN100 72 71     97%   73     0    
Jun 30 22:10 SW 5 10 Light Rain FEW046 BKN060 OVC100 72 71     97%   73 30.01   0    
Jun 30 21:53 S 5 10 Light Rain BKN050 BKN060 OVC070 72 72     100%   74 30 29.96 0 0  
Jun 30 21:04 Calm 10 Light Rain SCT046 SCT070 BKN095 72 72     100%   74 29.98   0    
Jun 30 20:53 Calm 8 Light Rain SCT050 BKN070 BKN100 73 71     94%   74 29.98 29.94 0    
Jun 30 20:47 Calm 4 Rain and Fog/Mist SCT050 BKN070 OVC100 73 72     94%   75 29.98   0    
Jun 30 20:38 Calm 2.5 Light Rain and Fog/Mist SCT048 OVC070 75 71     88%   76 29.98   0    
Jun 30 20:26 Calm 10 Cloudy BKN070 OVC090 75 71     88%   76 29.98        
Jun 30 19:53 Calm 10 Cloudy OVC085 77 70     79%   78 29.98 29.93      
Jun 30 18:53 NW 7 10 Partly Cloudy SCT070 80 70     71%   83 29.97 29.93      
Jun 30 17:53 WNW 7 10 Mostly Cloudy BKN070 82 69     65%   85 29.97 29.92      
Jun 30 16:53 W 10 10 Clear CLR 83 68     61%   86 29.96 29.91      
Jun 30 15:53 W 13 10 Clear CLR 83 68     61%   86 29.95 29.9      
Jun 30 14:53 W 11 10 Clear CLR 77 64     64%   77 29.95 29.91      
Jun 30 13:53 5 10 Clear CLR 79 69     72%   80 29.92 29.88      
Jun 30 12:53 S 9 10 Clear CLR 76 65     69%   76 29.88 29.84     1
Jun 30 11:53 SSE 15 10 Clear CLR 68 66     93%     29.9 29.86 0    
Jun 30 10:53 S 15 6 Rain and Fog/Mist FEW085 OVC110 66 65     96%     29.99 29.95 0    
Jun 30 10:41 SSE 15 3 Rain and Fog/Mist BKN095 OVC110 66 65     96%     30.01   0    
Jun 30 10:22 SSE 8 3 Thunderstorms and Heavy Rain and Fog/Mist FEW070 BKN095 OVC110 65 65     100%     30.08   0    
Jun 30 10:12 SW 5 2.5 Thunderstorms and Rain and Fog/Mist BKN090 OVC110 65 65     100%     30.1   0    
Jun 30 10:05 SW 3 3 Thunderstorms and Rain and Fog/Mist BKN090 OVC110 65 65     100%     30.09   0    
Jun 30 09:53 SSW 3 3 Rain and Fog/Mist FEW080 OVC100 65 65     100%     30.08 30.04 0 0  
Jun 30 09:46 SW 3 2 Rain and Fog/Mist OVC095 65 65     100%     30.07   0    
Jun 30 09:22 SW 3 1.5 Heavy Rain and Fog/Mist SCT080 OVC100 65 65     100%     30.06   0    
Jun 30 09:10 Calm 2 Rain and Fog/Mist FEW015 SCT080 OVC100 65 65     100%     30.06   0    
Jun 30 08:53 W 3 2 Thunderstorms and Heavy Rain and Fog/Mist FEW018 BKN085 OVC110 66 65     96%     30.08 30.04 0    
Jun 30 08:49 WNW 3 2.5 Thunderstorms and Rain and Fog/Mist FEW020 BKN085 OVC110 64 64     100%     30.08   0    
Jun 30 08:40 3 4 Rain and Fog/Mist SCT090 OVC110 66 65     96%     30.07   0    
Jun 30 08:25 N 7 4 Thunderstorms and Heavy Rain and Fog/Mist FEW012 BKN090 OVC110 66 65     96%     30.04   0    
Jun 30 08:17 N 9 4 Heavy Rain and Fog/Mist SCT012 BKN039 OVC120 66 65     96%     30.02   0    
Jun 30 07:53 NNW 9 9 Light Rain OVC013 66 65     96%     30.03 29.98 0    
Jun 30 07:39 NW 9 10 Light Rain OVC013 66 65     96%     30.02   0    
Jun 30 07:22 NNW 9 8 Thunderstorms and Rain SCT010 BKN015 OVC080 65 65     100%     30   0    
Jun 30 07:18 NNW 13 7 Rain BKN014 BKN049 OVC080 65 65     100%     30   0    
Jun 30 07:09 NNW 10 10 Light Rain SCT014 BKN020 OVC080 65 65     100%     30.01   0    
Jun 30 07:01 NW 10 5 Thunderstorms and Rain and Fog/Mist FEW013 BKN022 OVC080 65 64     97%     30.01   0    
Jun 30 06:58 NW 11 2.5 Thunderstorms and Rain and Fog/Mist SCT022 BKN038 OVC080 65 64     97%     30.01   0    
Jun 30 06:53 NNW 10 1 Thunderstorms and Heavy Rain and Fog/Mist FEW010 BKN022 OVC055 65 64     97%     30.01 29.97 1   1
Jun 30 06:44   0.75 Thunderstorms and Heavy Rain and Fog/Mist SCT014 BKN038 OVC050 65 64     97%     30   0    
Jun 30 06:39   2.5 Thunderstorms and Rain and Fog/Mist FEW019 BKN038 OVC050 68 65     90%     30.02   0    
Jun 30 06:32   10 Cloudy BKN040 OVC065 73 71     94%   74 30.02        
Jun 30 05:53 SE 7 10 Mostly Cloudy SCT045 BKN055 71 70     96%   72 29.95 29.9      
Jun 30 04:53 S 6 10 Clear CLR 70 70     100%     29.93 29.88      
Jun 30 03:53 S 3 10 Clear CLR 70 69     97%     29.92 29.87      
Jun 30 03:20 SE 3 10 Partly Cloudy SCT017 71 69     93%   72 29.91        
Jun 30 02:53 SSE 6 10 Mostly Cloudy BKN020 71 70     96%   72 29.9 29.85      
Jun 30 02:21 S 7 10 Mostly Cloudy BKN016 71 70     96%   72 29.89        
Jun 30 01:53 SSE 8 10 Clear CLR 70 69     97%     29.87 29.82      
Jun 30 00:53 SE 6 10 Clear CLR 69 69     100%     29.91 29.87      
Jun 29 23:53 S 6 10 Clear CLR 71 69     93%   72 29.93 29.88      
Jun 29 22:53 SSE 8 10 Partly Cloudy FEW024 SCT035 73 70     90%   74 29.93 29.88      
Jun 29 21:53 Calm 10 Partly Cloudy FEW027 SCT033 74 69     85%   75 29.93 29.88      
Jun 29 20:53 SSE 7 10 Mostly Clear FEW028 FEW035 75 70     84%   76 29.9 29.86      
Jun 29 19:53 S 8 10 Partly Cloudy SCT039 78 69     74%   79 29.89 29.84      
Jun 29 18:53 S 14 10 Mostly Clear FEW035 81 68     65%   84 29.89 29.85      
Jun 29 17:53 SSE 13 10 Mostly Cloudy BKN034 83 68     61%   86 29.89 29.85      
Jun 29 16:53   10 Mostly Clear FEW030 82 69     65%   85 29.88 29.83      
Jun 29 15:53 SSE 16 10 Mostly Clear FEW036 84 67     57%   87 29.9 29.86      
Jun 29 14:53 S 13 10 Clear CLR 83 67     59%   86 29.94 29.9      
Jun 29 13:53 SSE 13 10 Partly Cloudy FEW032 SCT049 84 69     61%   88 29.96 29.91      
Jun 29 12:53 S 7 10 Mostly Cloudy SCT032 BKN040 82 68     63%   85 29.97 29.92      
Jun 29 11:53 SE 13 10 Mostly Cloudy BKN030 BKN035 81 68     65%   84 29.97 29.92      
Jun 29 11:45 SSE 13 10 Mostly Cloudy BKN028 BKN034 81 68     65%   84 29.97        
Jun 29 10:53 SSE 14 10 Partly Cloudy SCT026 81 69     67%   84 29.96 29.91      
Jun 29 09:53 SSE 15 10 Mostly Clear FEW019 79 68     69%   80 29.97 29.92      
Jun 29 08:53 SE 9 10 Clear   76 68     76%   77 29.96 29.92      
Jun 29 07:53 ESE 6 10 Clear CLR 73 68     84%   74 29.95 29.91      
Jun 29 06:53 Calm 10 Clear CLR 70 67     90%     29.95 29.9      
Jun 29 03:53 S 5 10 Clear CLR 67 66     97%     29.94 29.9      
Jun 29 02:53 SSE 3 10 Clear CLR 68 66     93%     29.94 29.89      
Jun 29 01:53 SSE 6 10 Clear CLR 69 66     90%     29.94 29.89      
Jun 29 00:53 SSE 8 10 Clear CLR 69 66     90%     29.95 29.9      
Jun 28 23:53 S 6 10 Clear CLR 70 66     87%     29.95 29.9      
Jun 28 22:53 SE 7 10 Clear CLR 72 66     82%   73 29.96 29.91      
Jun 28 21:53 SSE 7 10 Clear CLR 72 65     79%   73 29.95 29.9      
Jun 28 20:53 S 6 10 Clear CLR 74 65     74%   74 29.93 29.88      
Jun 28 19:53 S 10 10 Clear CLR 78 65     64%   79 29.92 29.88      
Jun 28 18:53 SSE 14 10 Mostly Clear FEW044 81 65     58%   83 29.92 29.88      
Jun 28 17:53 SSE 14 10 Mostly Cloudy BKN047 84 65     53%   86 29.94 29.9      
Jun 28 16:53 SSE 14 10 Partly Cloudy SCT049 85 64     50%   86 29.96 29.91      
Jun 28 15:53   10 Clear CLR 85 64     50%   86 29.96 29.92      
Jun 28 14:53 SSE 15 10 Partly Cloudy SCT042 85 65     51%   87 29.97 29.92      
Jun 28 13:53 S 11 10 Mostly Clear FEW041 85 65     51%   87 29.99 29.94      
Jun 28 12:53 S 8 10 Mostly Clear FEW039 83 64     53%   84 30.02 29.97      
Jun 28 11:53 SSW 7 10 Mostly Cloudy BKN036 81 65     58%   83 30.04 30      
Jun 28 10:53 S 11 10 Clear CLR 78 64     62%   79 30.04 30      
Jun 28 09:53 S 11 10 Partly Cloudy SCT032 79 65     62%   80 30.05 30      
Jun 28 08:53 S 8 10 Clear CLR 75 65     71%   76 30.04 30      
Jun 28 07:53 Calm 10 Clear CLR 70 62     76%     30.06 30.02      
Jun 28 06:53 SE 6 10 Clear CLR 67 62     84%     30.04 30      
Jun 28 05:53 S 3 10 Clear CLR 64 61     90%     30.02 29.98      
Jun 28 04:53 SE 5 10 Clear CLR 64 61     90%     30.01 29.97      
Jun 28 03:53 S 5 10 Clear CLR 66 61     84%     30.02 29.98      
Jun 28 02:53 SE 6 10 Clear CLR 65 62     90%     30.01 29.97      
Jun 28 01:53 S 3 10 Clear CLR 65 62     90%     30.04 30      
Jun 28 00:53 SSE 5 10 Clear CLR 66 62     87%     30.05 30.01      
Jun 27 23:53 SSE 7 10 Clear CLR 67 63     87%     30.05 30.01      
Jun 27 22:53 SSE 6 10 Clear CLR 68 63     84%     30.05 30.01      
Jun 27 21:53 SSE 7 10 Clear CLR 70 63     78%     30.04 30.01      
Jun 27 20:53 SSE 9 10 Clear CLR 73 64     73%   73 30.02 29.98      
Jun 27 19:53 SE 8 10 Clear CLR 77 64     64%   77 30.02 29.98      
Jun 27 18:53 S 10 10 Clear CLR 79 64     60%   79 30.03 29.99      
Jun 27 17:53 SE 14 10 Partly Cloudy SCT042 81 63     54%   82 30.03 30      
Jun 27 16:53 SE 8 10 Mostly Clear FEW049 82 61     49%   83 30.05 30.01      
Jun 27 15:53 S 8 10 Partly Cloudy SCT046 81 60     49%   82 30.07 30.03      
Jun 27 14:53 SE 9 10 Mostly Cloudy BKN045 81 63     54%   82 30.07 30.04      
Jun 27 13:53 SSE 9 10 Partly Cloudy SCT040 81 59     47%   81 30.1 30.06      
Jun 27 12:53 5 10 Clear CLR 78 60     54%   78 30.11 30.07      
Jun 27 11:53 ESE 7 10 Clear CLR 76 63     64%   76 30.12 30.09      
Jun 27 09:53 SSE 9 10 Clear CLR 69 61     75%     30.15 30.12      
Jun 27 08:53 S 11 10 Clear CLR 67 60     79%     30.16 30.13      
Jun 27 07:53 SE 9 10 Clear CLR 64 59     84%     30.15 30.12      
Jun 27 06:53 SE 5 10 Mostly Clear FEW120 61 59     93%     30.14 30.11     0
Jun 27 05:53 SE 6 10 Cloudy OVC100 61 59     93%     30.14 30.11 0    
Jun 27 04:53 SE 6 10 Cloudy OVC095 61 59     93%     30.14 30.1      
Jun 27 03:53 SE 6 10 Cloudy OVC100 61 59     93%     30.13 30.09      
Jun 27 01:53 N 6 10 Cloudy OVC110 62 59     90%     30.15 30.11      
Jun 27 00:53 ESE 3 10 Mostly Clear FEW120 62 59     90%     30.14 30.1      
Jun 26 23:53 ESE 7 10 Clear CLR 63 59     87%     30.13 30.09      
Jun 26 22:53 SE 10 10 Clear CLR 64 59     84%     30.13 30.1      
Jun 26 21:53 ENE 3 10 Clear CLR 65 61     87%     30.13 30.1      
Jun 26 20:53 NE 9 10 Mostly Clear FEW110 67 62     84%     30.11 30.08      
Jun 26 19:53 NE 7 10 Cloudy FEW065 OVC100 75 65     71%   76 30.1 30.07      
Jun 26 18:53 NE 8 10 Partly Cloudy SCT100 78 64     62%   79 30.1 30.06      
Jun 26 17:53 ENE 7 10 Cloudy OVC085 78 64     62%   79 30.1 30.06      
Jun 26 16:53 N 5 10 Partly Cloudy SCT070 SCT095 82 61     49%   83 30.11 30.07      
Jun 26 15:53 N 5 10 Cloudy BKN060 OVC080 79 64     60%   79 30.13 30.09      
Jun 26 14:53 SSE 7 10 Mostly Cloudy FEW049 BKN065 BKN075 78 61     56%   78 30.15 30.11      
Jun 26 13:53 S 6 10 Partly Cloudy SCT095 79 60     52%   79 30.18 30.14      
Jun 26 12:53 Calm 10 Mostly Cloudy BKN100 77 58     52%   77 30.21 30.17      
Jun 26 11:53 6 10 Clear CLR 75 56     52%   75 30.22 30.19      
Jun 26 10:53 SE 14 10 Clear CLR 73 54     51%   72 30.24 30.21      
Jun 26 09:53 SE 10 10 Mostly Clear FEW120 70 56     61%     30.26 30.23      
Jun 26 08:53 ESE 6 10 Mostly Clear FEW120 67 56     68%     30.27 30.24      
Jun 26 07:53 ENE 5 10 Mostly Cloudy BKN110 66 58     75%     30.26 30.23      
Jun 26 06:53 NNE 7 10 Clear CLR 64 59     84%     30.26 30.22      
Jun 26 05:53 NNW 5 10 Clear CLR 63 60     90%     30.25 30.21      
Jun 26 04:53 W 3 10 Partly Cloudy SCT120 63 61     93%     30.24 30.2      
Jun 26 03:53 Calm 10 Mostly Cloudy BKN110 64 60     87%     30.24 30.2      
Jun 26 02:53 Calm 10 Cloudy OVC100 65 61     87%     30.24 30.2      
Jun 26 01:53 Calm 10 Cloudy OVC110 65 62     90%     30.24 30.21      
Jun 26 00:53 WSW 3 10 Cloudy OVC110 65 61     87%     30.24 30.2 0   0
Jun 25 23:53 Calm 10 Mostly Cloudy BKN110 67 61     81%     30.24 30.19      
Jun 25 22:53 WSW 3 10 Clear   65 60     84%     30.24 30.2      
Jun 25 21:53 Calm 10 Clear CLR 65 59     81%     30.23 30.19      
Jun 25 20:53 N 5 10 Clear CLR 70 58     66%     30.22 30.18      
Jun 25 19:53 Calm 10 Clear CLR 75 57     54%   75 30.22 30.19      
Jun 25 18:53 N 6 10 Clear CLR 80 53     39%   80 30.22 30.19      
Jun 25 17:53 NNW 6 10 Clear CLR 82 50     33%   81 30.23 30.19      
Jun 25 16:53 3 10 Clear CLR 83 47     28%   81 30.24 30.2      
Jun 25 14:53 W 5 10 Clear CLR 81 48     32%   80 30.26 30.23      
Jun 25 13:53 SSW 6 10 Clear CLR 80 48     33%   79 30.28 30.24      
Jun 25 12:53 Calm 10 Clear CLR 79 48     34%   78 30.3 30.26      
Jun 25 11:53 NNE 3 10 Clear CLR 80 49     34%   79 30.31 30.27      
Jun 25 10:53 N 3 10 Partly Cloudy SCT110 77 52     42%   76 30.31 30.27      
Jun 25 09:53 Calm 10 Clear CLR 75 49     40%   74 30.31 30.27      
Jun 25 08:53 Calm 10 Mostly Clear FEW120 71 52     51%   70 30.31 30.28      
Jun 25 07:53 WSW 5 10 Mostly Cloudy BKN120 64 55     73%     30.3 30.27      
Jun 25 06:53 WSW 5 10 Partly Cloudy SCT120 61 54     78%     30.29 30.26      
Jun 25 05:53 WSW 3 10 Cloudy OVC120 60 55     83%     30.28 30.25      
Jun 25 04:53 WSW 3 10 Cloudy OVC110 61 53     75%     30.27 30.23      
Jun 25 03:53 W 5 10 Cloudy OVC110 60 54     80%     30.26 30.23      
Jun 25 02:53 W 5 10 Mostly Cloudy BKN110 61 53     75%     30.25 30.22      
Jun 25 01:53 WSW 3 10 Partly Cloudy SCT110 59 54     83%     30.25 30.22      
Jun 25 00:53 W 5 10 Clear CLR 61 53     75%     30.26 30.22      
Jun 24 23:53 NNW 3 10 Mostly Clear FEW120 63 53     70%     30.25 30.22      
Jun 24 22:53 NNW 5 10 Mostly Cloudy BKN120 66 55     68%     30.25 30.21      
Jun 24 21:53 NNW 3 10 Partly Cloudy SCT110 67 54     63%     30.23 30.19      
Jun 24 20:53 NNW 3 10 Mostly Clear FEW120 67 54     63%     30.21 30.17      
Jun 24 19:53 NW 5 10 Clear CLR 71 53     53%   70 30.18 30.15      
Jun 24 18:53 NNW 8 10 Clear CLR 76 51     42%   75 30.17 30.13      
Jun 24 17:53 5 10 Clear CLR 76 55     48%   75 30.17 30.14      
Jun 24 16:53 NNW 8 10 Clear CLR 77 54     45%   77 30.17 30.14      
Jun 24 15:53 6 10 Clear CLR 77 53     43%   76 30.19 30.15      
Jun 24 14:53 NW 6 10 Clear CLR 75 54     48%   74 30.2 30.16      
Jun 24 13:53 NW 6 10 Mostly Clear FEW047 75 56     52%   75 30.21 30.17      
Jun 12 02:53 SE 8 10 Clear CLR 71 67     87%   72 29.99 29.94      
Jun 11 14:53 S 11 10 Clear   84 66     55%   86 30.02 29.97      
Jun 11 13:53   10 Mostly Clear FEW046 83 64     53%   84 30.02 29.97      
Jun 11 04:53 S 7 10 Clear CLR 68 63     84%     29.98 29.93      
Jun 10 18:53 S 10 10 Clear CLR 78 64     62%   79 29.92 29.89      
Jun 10 13:53 SSE 11 10 Clear CLR 81 63     54%   82 29.96 29.93      
Jun 10 12:53 SSE 13 10 Clear CLR 80 61     52%   81 29.97 29.94      
Jun 09 19:53 S 6 10 Clear CLR 74 58     57%   74 29.92 29.88      
Jun 08 07:53 W 5 10 Clear CLR 59 54     83%     30.08 30.05      
Jun 07 10:53 ENE 6 10 Clear CLR 70 54     57%     30.08 30.05      
Jun 06 11:53 N 8 10 Clear CLR 81 67     62%   83 29.93 29.88